Starlink 31977

operational
NORAD ID: 59892 Int'l Des: 2024-100 Owner: SPXS Country: US Constellation: starlink
LEOCIRCULAR

Starlink 31977について

説明を読み込み中...

リアルタイム位置

3D地球を読み込み中...

次回通過

高度履歴

Altitude vs Time

uPlot chart will show altitude changes over time

軌道要素

1 59892U 24100H 26094.99566223 .00013724 00000-0 50721-3 0 9998
2 59892 43.0016 329.6042 0001508 301.5944 58.4760 15.27585681105267
Epoch: Apr 4, 2026 • Age: 16 hours

現在のステータス

高度 483.8 km
速度 7.63 km/s
衛星直下点 30.05°N, 66.9°W
打ち上げ日 May 28, 2024
運用期間 1.8 years
タイプ internet

技術仕様

分類 Payload
質量 730.00 kg
乾燥質量 700.00 kg
総質量 730.00 kg
長さ 0.30 m
直径 4.10 m
スパン 29.00 m
形状 Box + pan
製造者 SPXS
バスタイプ Starlink V2M
フェーズステータス In Orbit
所有者/国 SPXS/US

大規模コンステレーション

Loading constellations...